QPF
0.00 0.00 0.00 0.00 0.00 0.00 0.00 0.00 0.00 0.00 0.00 0.00 0.01 0.02 0.04 0.07 0.11 0.15 0.19 0.19 0.12 0.06 0.03 0.01 0.00 0.00 0.00 0.00 0.00 0.00 0.00 0.00 0.00 0.00 0.00 0.01 0.01 0.01 0.00 0.01 0.01 0.03 0.05
0.00 0.00 0.00 0.00 0.00 0.00 0.00 0.00 0.00 0.00 0.00 0.00 0.00 0.00 0.01 0.01 0.03 0.06 0.11 0.16 0.17 0.13 0.09 0.04 0.01 0.00 0.00 0.00 0.00 0.00 0.00 0.00 0.00 0.00 0.00 0.01 0.02 0.02 0.01 0.01 0.03 0.04 0.05
0.00 0.00 0.00 0.00 0.00 0.00 0.00 0.00 0.00 0.00 0.00 0.00 0.00 0.00 0.00 0.00 0.00 0.01 0.02 0.05 0.09 0.12 0.14 0.13 0.08 0.03 0.01 0.00 0.00 0.00 0.00 0.00 0.00 0.00 0.01 0.01 0.03 0.04 0.03 0.02 0.03 0.05 0.04
0.00 0.00 0.00 0.00 0.00 0.00 0.00 0.00 0.00 0.00 0.00 0.00 0.00 0.00 0.00 0.00 0.00 0.00 0.00 0.01 0.02 0.04 0.07 0.12 0.13 0.10 0.04 0.02 0.00 0.00 0.00 0.00 0.00 0.00 0.01 0.02 0.04 0.06 0.05 0.03 0.04 0.05 0.04
0.00 0.00 0.00 0.00 0.00 0.00 0.00 0.00 0.00 0.00 0.00 0.00 0.00 0.00 0.00 0.00 0.00 0.00 0.00 0.00 0.00 0.01 0.01 0.03 0.05 0.07 0.07 0.04 0.01 0.00 0.00 0.00 0.00 0.01 0.02 0.03 0.05 0.08 0.08 0.05 0.03 0.03 0.04
0.00 0.00 0.00 0.00 0.00 0.00 0.00 0.00 0.00 0.00 0.00 0.00 0.00 0.00 0.00 0.00 0.00 0.00 0.00 0.00 0.00 0.00 0.00 0.00 0.01 0.03 0.03 0.03 0.02 0.01 0.00 0.00 0.00 0.00 0.02 0.03 0.04 0.05 0.04 0.03 0.03 0.02 0.04
0.00 0.00 0.00 0.00 0.01 0.01 0.02 0.02 0.01 0.01 0.01 0.01 0.01 0.01 0.00 0.00 0.00 0.00 0.00 0.00 0.00 0.00 0.00 0.00 0.00 0.01 0.02 0.02 0.02 0.01 0.00 0.00 0.00 0.00 0.01 0.02 0.03 0.04 0.05 0.05 0.03 0.02 0.03
0.00 0.01 0.01 0.02 0.03 0.04 0.05 0.05 0.05 0.05 0.04 0.03 0.02 0.02 0.01 0.00 0.00 0.00 0.00 0.00 0.00 0.00 0.00 0.00 0.00 0.01 0.03 0.03 0.02 0.02 0.01 0.00 0.00 0.00 0.00 0.01 0.03 0.06 0.08 0.11 0.12 0.09 0.08
0.01 0.01 0.02 0.03 0.04 0.05 0.07 0.07 0.08 0.08 0.07 0.05 0.04 0.03 0.02 0.01 0.00 0.00 0.00 0.00 0.00 0.00 0.00 0.00 0.01 0.02 0.04 0.04 0.02 0.01 0.01 0.00 0.00 0.00 0.01 0.03 0.07 0.13 0.16 0.17 0.18 0.14 0.11
0.01 0.02 0.03 0.04 0.05 0.06 0.07 0.08 0.09 0.09 0.10 0.08 0.06 0.04 0.03 0.01 0.00 0.00 0.00 0.00 0.00 0.00 0.00 0.00 0.02 0.04 0.06 0.05 0.03 0.01 0.01 0.00 0.00 0.00 0.02 0.04 0.07 0.10 0.15 0.13 0.12 0.10 0.08
0.02 0.02 0.03 0.04 0.05 0.06 0.07 0.06 0.06 0.06 0.06 0.07 0.07 0.05 0.04 0.02 0.00 0.00 0.00 0.00 0.00 0.00 0.00 0.00 0.03 0.06 0.09 0.08 0.05 0.03 0.01 0.01 0.00 0.00 0.02 0.04 0.06 0.08 0.09 0.10 0.10 0.06 0.03
0.02 0.03 0.04 0.05 0.07 0.08 0.09 0.08 0.06 0.05 0.04 0.04 0.04 0.04 0.03 0.01 0.00 0.00 0.00 0.00 0.00 0.00 0.00 0.01 0.04 0.09 0.13 0.14 0.12 0.08 0.04 0.01 0.01 0.01 0.02 0.03 0.04 0.05 0.06 0.06 0.06 0.04 0.01
0.03 0.04 0.05 0.06 0.09 0.11 0.12 0.11 0.09 0.07 0.05 0.03 0.02 0.02 0.01 0.01 0.00 0.00 0.00 0.00 0.00 0.00 0.00 0.01 0.05 0.14 0.20 0.20 0.19 0.15 0.07 0.02 0.02 0.02 0.02 0.02 0.02 0.02 0.03 0.03 0.03 0.01 0.00
0.05 0.05 0.05 0.06 0.07 0.08 0.08 0.08 0.07 0.06 0.05 0.04 0.03 0.02 0.01 0.00 0.00 0.00 0.00 0.00 0.00 0.00 0.00 0.02 0.07 0.19 0.31 0.32 0.28 0.24 0.12 0.05 0.03 0.02 0.02 0.02 0.02 0.02 0.02 0.02 0.01 0.01 0.00
0.05 0.05 0.06 0.05 0.04 0.04 0.04 0.04 0.04 0.04 0.03 0.03 0.02 0.01 0.01 0.00 0.00 0.00 0.00 0.00 0.00 0.00 0.00 0.01 0.07 0.20 0.37 0.46 0.43 0.33 0.20 0.09 0.05 0.04 0.03 0.02 0.02 0.02 0.02 0.02 0.02 0.01 0.00
0.06 0.05 0.05 0.04 0.03 0.03 0.03 0.03 0.04 0.04 0.03 0.03 0.02 0.01 0.01 0.01 0.01 0.00 0.00 0.00 0.00 0.00 0.00 0.01 0.06 0.17 0.32 0.49 0.56 0.46 0.26 0.11 0.06 0.04 0.03 0.02 0.02 0.01 0.02 0.02 0.02 0.02 0.01
0.05 0.03 0.02 0.02 0.02 0.02 0.02 0.04 0.05 0.04 0.04 0.05 0.06 0.04 0.02 0.01 0.01 0.01 0.00 0.00 0.01 0.01 0.00 0.01 0.03 0.12 0.24 0.41 0.56 0.51 0.28 0.11 0.06 0.04 0.03 0.02 0.01 0.01 0.01 0.01 0.01 0.01 0.01
0.03 0.01 0.01 0.01 0.01 0.01 0.01 0.03 0.06 0.07 0.09 0.09 0.13 0.14 0.07 0.03 0.02 0.01 0.01 0.00 0.00 0.01 0.00 0.01 0.02 0.07 0.18 0.33 0.48 0.49 0.30 0.13 0.07 0.04 0.03 0.02 0.01 0.01 0.01 0.01 0.00 0.00 0.00
0.03 0.01 0.00 0.00 0.00 0.00 0.01 0.02 0.04 0.06 0.07 0.09 0.11 0.12 0.09 0.04 0.02 0.01 0.01 0.00 0.00 0.00 0.00 0.01 0.02 0.07 0.16 0.29 0.40 0.40 0.29 0.14 0.07 0.03 0.02 0.01 0.01 0.00 0.00 0.00 0.00 0.00 0.00
0.03 0.02 0.01 0.00 0.00 0.00 0.01 0.01 0.01 0.03 0.04 0.04 0.04 0.04 0.03 0.02 0.00 0.01 0.01 0.01 0.01 0.02 0.02 0.02 0.03 0.07 0.15 0.26 0.32 0.31 0.23 0.12 0.05 0.03 0.01 0.01 0.00 0.00 0.00 0.00 0.00 0.00 0.00
0.05 0.02 0.01 0.00 0.00 0.00 0.01 0.01 0.01 0.02 0.03 0.02 0.01 0.01 0.01 0.01 0.01 0.01 0.02 0.03 0.03 0.04 0.03 0.03 0.03 0.07 0.13 0.20 0.23 0.21 0.15 0.08 0.03 0.02 0.01 0.00 0.00 0.00 0.00 0.00 0.00 0.00 0.00
0.07 0.04 0.01 0.00 0.00 0.00 0.00 0.00 0.01 0.01 0.01 0.00 0.00 0.00 0.00 0.01 0.01 0.02 0.03 0.04 0.04 0.04 0.03 0.02 0.04 0.06 0.09 0.12 0.12 0.10 0.07 0.03 0.01 0.01 0.00 0.00 0.00 0.00 0.00 0.00 0.00 0.00 0.00
0.08 0.06 0.03 0.01 0.00 0.00 0.00 0.00 0.00 0.00 0.01 0.01 0.01 0.01 0.01 0.02 0.02 0.04 0.05 0.05 0.05 0.04 0.03 0.02 0.04 0.05 0.05 0.05 0.04 0.03 0.02 0.01 0.00 0.00 0.00 0.00 0.00 0.00 0.00 0.00 0.00 0.00 0.00
0.07 0.06 0.04 0.02 0.01 0.00 0.00 0.00 0.00 0.00 0.01 0.01 0.02 0.02 0.02 0.03 0.05 0.06 0.06 0.06 0.04 0.04 0.03 0.02 0.02 0.02 0.02 0.01 0.02 0.01 0.01 0.00 0.00 0.00 0.00 0.00 0.00 0.00 0.00 0.00 0.00 0.00 0.00
0.04 0.05 0.04 0.04 0.02 0.01 0.00 0.00 0.00 0.00 0.00 0.00 0.01 0.02 0.02 0.03 0.04 0.04 0.04 0.04 0.03 0.03 0.02 0.01 0.01 0.00 0.00 0.00 0.00 0.00 0.00 0.00 0.00 0.00 0.00 0.00 0.00 0.00 0.00 0.00 0.00 0.00 0.00
0.02 0.04 0.04 0.04 0.02 0.01 0.00 0.00 0.00 0.00 0.00 0.00 0.01 0.01 0.01 0.01 0.02 0.02 0.02 0.02 0.02 0.01 0.01 0.01 0.00 0.00 0.00 0.00 0.00 0.00 0.00 0.00 0.00 0.00 0.00 0.00 0.00 0.00 0.00 0.00 0.00 0.00 0.00
MSLP
1010.55 1010.30 1010.14 1010.02 1009.93 1009.85 1009.76 1009.66 1009.57 1009.49 1009.41 1009.35 1009.28 1009.21 1009.12 1009.00 1008.87 1008.74 1008.61 1008.52 1008.48 1008.51 1008.62 1008.80 1009.05 1009.34 1009.67 1010.00 1010.31 1010.59 1010.83 1011.00 1011.11 1011.15 1011.13 1011.06 1010.94 1010.80 1010.65 1010.53 1010.44 1010.42 1010.46
1010.18 1009.87 1009.62 1009.42 1009.24 1009.08 1008.93 1008.79 1008.67 1008.58 1008.52 1008.48 1008.47 1008.45 1008.43 1008.39 1008.33 1008.25 1008.18 1008.12 1008.09 1008.10 1008.17 1008.31 1008.50 1008.74 1009.02 1009.33 1009.64 1009.95 1010.23 1010.48 1010.69 1010.84 1010.94 1010.98 1010.98 1010.96 1010.93 1010.91 1010.93 1010.99 1011.12
1009.93 1009.55 1009.21 1008.90 1008.61 1008.34 1008.10 1007.89 1007.72 1007.60 1007.54 1007.52 1007.55 1007.59 1007.64 1007.68 1007.70 1007.70 1007.69 1007.67 1007.67 1007.69 1007.75 1007.85 1008.00 1008.19 1008.43 1008.71 1009.00 1009.31 1009.62 1009.92 1010.19 1010.42 1010.61 1010.77 1010.89 1010.98 1011.08 1011.19 1011.33 1011.52 1011.75
1009.76 1009.32 1008.89 1008.47 1008.06 1007.67 1007.32 1007.03 1006.80 1006.64 1006.57 1006.57 1006.62 1006.71 1006.82 1006.93 1007.02 1007.09 1007.14 1007.18 1007.21 1007.26 1007.32 1007.41 1007.53 1007.69 1007.90 1008.14 1008.41 1008.70 1009.01 1009.31 1009.61 1009.89 1010.15 1010.39 1010.61 1010.82 1011.04 1011.29 1011.57 1011.90 1012.26
1009.62 1009.12 1008.60 1008.08 1007.57 1007.08 1006.64 1006.26 1005.98 1005.79 1005.70 1005.70 1005.77 1005.89 1006.04 1006.19 1006.33 1006.45 1006.56 1006.64 1006.71 1006.78 1006.86 1006.96 1007.08 1007.23 1007.40 1007.61 1007.85 1008.11 1008.38 1008.67 1008.96 1009.26 1009.55 1009.84 1010.13 1010.45 1010.79 1011.17 1011.59 1012.05 1012.55
1009.44 1008.89 1008.31 1007.71 1007.12 1006.55 1006.04 1005.62 1005.30 1005.09 1004.99 1004.99 1005.06 1005.19 1005.35 1005.52 1005.68 1005.83 1005.96 1006.08 1006.18 1006.28 1006.39 1006.50 1006.63 1006.77 1006.93 1007.11 1007.31 1007.53 1007.76 1008.01 1008.27 1008.54 1008.84 1009.16 1009.51 1009.90 1010.34 1010.84 1011.39 1011.98 1012.62
1009.17 1008.59 1007.97 1007.32 1006.67 1006.07 1005.53 1005.09 1004.75 1004.54 1004.43 1004.42 1004.50 1004.62 1004.77 1004.93 1005.09 1005.25 1005.39 1005.52 1005.64 1005.77 1005.90 1006.04 1006.18 1006.33 1006.48 1006.63 1006.80 1006.96 1007.14 1007.34 1007.55 1007.80 1008.08 1008.41 1008.80 1009.25 1009.77 1010.37 1011.02 1011.74 1012.48
1008.80 1008.19 1007.54 1006.87 1006.21 1005.59 1005.05 1004.62 1004.29 1004.08 1003.99 1003.98 1004.04 1004.15 1004.29 1004.43 1004.57 1004.71 1004.85 1004.98 1005.12 1005.27 1005.42 1005.58 1005.74 1005.89 1006.03 1006.17 1006.30 1006.42 1006.55 1006.70 1006.87 1007.09 1007.36 1007.69 1008.11 1008.60 1009.19 1009.86 1010.60 1011.40 1012.23
1008.33 1007.70 1007.03 1006.35 1005.70 1005.09 1004.57 1004.16 1003.86 1003.67 1003.58 1003.58 1003.64 1003.73 1003.85 1003.97 1004.09 1004.22 1004.35 1004.49 1004.64 1004.80 1004.97 1005.14 1005.31 1005.46 1005.60 1005.72 1005.81 1005.91 1006.00 1006.11 1006.26 1006.46 1006.73 1007.08 1007.53 1008.06 1008.70 1009.42 1010.21 1011.07 1011.95
1007.78 1007.14 1006.46 1005.79 1005.14 1004.56 1004.07 1003.68 1003.40 1003.23 1003.16 1003.16 1003.21 1003.29 1003.40 1003.51 1003.62 1003.75 1003.88 1004.03 1004.19 1004.37 1004.55 1004.74 1004.91 1005.06 1005.18 1005.28 1005.36 1005.43 1005.50 1005.60 1005.75 1005.96 1006.25 1006.64 1007.12 1007.70 1008.37 1009.13 1009.95 1010.82 1011.71
1007.22 1006.56 1005.88 1005.21 1004.58 1004.01 1003.54 1003.17 1002.90 1002.74 1002.67 1002.67 1002.71 1002.79 1002.89 1003.01 1003.13 1003.27 1003.42 1003.59 1003.77 1003.97 1004.17 1004.36 1004.52 1004.67 1004.77 1004.85 1004.92 1004.98 1005.06 1005.17 1005.35 1005.60 1005.94 1006.38 1006.91 1007.54 1008.24 1009.02 1009.84 1010.69 1011.55
1006.68 1006.01 1005.32 1004.66 1004.03 1003.48 1003.01 1002.64 1002.38 1002.21 1002.12 1002.11 1002.14 1002.22 1002.33 1002.45 1002.60 1002.77 1002.95 1003.16 1003.38 1003.59 1003.80 1003.99 1004.15 1004.28 1004.37 1004.44 1004.49 1004.56 1004.65 1004.81 1005.03 1005.35 1005.76 1006.27 1006.87 1007.54 1008.28 1009.06 1009.87 1010.68 1011.49
1006.20 1005.52 1004.84 1004.18 1003.56 1003.01 1002.53 1002.15 1001.86 1001.67 1001.56 1001.52 1001.54 1001.61 1001.72 1001.87 1002.05 1002.26 1002.49 1002.73 1002.98 1003.22 1003.45 1003.64 1003.79 1003.89 1003.97 1004.02 1004.07 1004.15 1004.28 1004.48 1004.78 1005.17 1005.67 1006.26 1006.93 1007.66 1008.43 1009.21 1009.98 1010.74 1011.48
1005.79 1005.12 1004.45 1003.81 1003.20 1002.64 1002.15 1001.75 1001.43 1001.20 1001.04 1000.97 1000.96 1001.02 1001.14 1001.30 1001.51 1001.75 1002.03 1002.31 1002.60 1002.86 1003.09 1003.27 1003.41 1003.50 1003.56 1003.60 1003.66 1003.76 1003.92 1004.19 1004.55 1005.03 1005.61 1006.29 1007.03 1007.81 1008.60 1009.37 1010.12 1010.82 1011.48
1005.44 1004.80 1004.16 1003.54 1002.94 1002.40 1001.91 1001.48 1001.13 1000.85 1000.66 1000.54 1000.50 1000.53 1000.64 1000.81 1001.03 1001.30 1001.61 1001.92 1002.22 1002.50 1002.73 1002.91 1003.03 1003.10 1003.15 1003.18 1003.25 1003.37 1003.58 1003.90 1004.33 1004.89 1005.55 1006.30 1007.09 1007.91 1008.72 1009.50 1010.21 1010.87 1011.46
1005.13 1004.52 1003.93 1003.35 1002.79 1002.27 1001.79 1001.36 1000.99 1000.69 1000.45 1000.29 1000.21 1000.21 1000.30 1000.45 1000.67 1000.95 1001.25 1001.57 1001.88 1002.15 1002.38 1002.55 1002.65 1002.72 1002.75 1002.79 1002.87 1003.02 1003.26 1003.63 1004.12 1004.73 1005.45 1006.25 1007.09 1007.94 1008.76 1009.52 1010.22 1010.84 1011.39
1004.80 1004.24 1003.70 1003.18 1002.69 1002.21 1001.77 1001.36 1001.00 1000.69 1000.43 1000.24 1000.12 1000.09 1000.13 1000.26 1000.45 1000.71 1000.99 1001.29 1001.58 1001.84 1002.05 1002.20 1002.30 1002.36 1002.40 1002.45 1002.54 1002.71 1002.99 1003.39 1003.91 1004.56 1005.32 1006.14 1007.00 1007.86 1008.69 1009.45 1010.14 1010.75 1011.27
1004.43 1003.93 1003.45 1003.00 1002.57 1002.17 1001.79 1001.43 1001.10 1000.81 1000.55 1000.35 1000.21 1000.14 1000.15 1000.23 1000.38 1000.58 1000.83 1001.09 1001.34 1001.57 1001.76 1001.90 1001.99 1002.05 1002.10 1002.17 1002.28 1002.48 1002.78 1003.20 1003.75 1004.41 1005.17 1006.00 1006.86 1007.72 1008.54 1009.30 1009.99 1010.60 1011.13
1004.02 1003.55 1003.13 1002.75 1002.41 1002.09 1001.79 1001.50 1001.23 1000.98 1000.75 1000.55 1000.41 1000.31 1000.28 1000.32 1000.41 1000.56 1000.75 1000.95 1001.16 1001.34 1001.50 1001.63 1001.72 1001.79 1001.86 1001.96 1002.11 1002.33 1002.66 1003.09 1003.64 1004.30 1005.05 1005.86 1006.70 1007.54 1008.36 1009.12 1009.81 1010.44 1011.00
1003.57 1003.13 1002.75 1002.43 1002.16 1001.92 1001.71 1001.51 1001.31 1001.13 1000.95 1000.78 1000.65 1000.54 1000.49 1000.48 1000.52 1000.60 1000.72 1000.86 1001.01 1001.16 1001.29 1001.40 1001.50 1001.59 1001.69 1001.82 1002.01 1002.26 1002.61 1003.06 1003.60 1004.25 1004.97 1005.75 1006.56 1007.38 1008.17 1008.93 1009.64 1010.29 1010.88
1003.14 1002.69 1002.34 1002.05 1001.84 1001.67 1001.54 1001.42 1001.31 1001.20 1001.08 1000.97 1000.85 1000.76 1000.69 1000.64 1000.63 1000.66 1000.71 1000.79 1000.89 1000.99 1001.10 1001.20 1001.31 1001.43 1001.56 1001.74 1001.97 1002.26 1002.63 1003.09 1003.63 1004.25 1004.95 1005.69 1006.47 1007.25 1008.03 1008.78 1009.49 1010.16 1010.78
1002.78 1002.32 1001.95 1001.69 1001.50 1001.38 1001.30 1001.25 1001.21 1001.17 1001.12 1001.06 1000.99 1000.91 1000.83 1000.77 1000.72 1000.70 1000.70 1000.72 1000.77 1000.83 1000.91 1001.02 1001.14 1001.28 1001.46 1001.68 1001.96 1002.29 1002.69 1003.16 1003.70 1004.31 1004.98 1005.69 1006.42 1007.18 1007.93 1008.66 1009.37 1010.05 1010.69
1002.57 1002.06 1001.67 1001.39 1001.21 1001.10 1001.06 1001.05 1001.06 1001.08 1001.08 1001.07 1001.03 1000.98 1000.91 1000.84 1000.77 1000.71 1000.66 1000.64 1000.64 1000.68 1000.74 1000.84 1000.97 1001.15 1001.36 1001.63 1001.95 1002.32 1002.76 1003.25 1003.80 1004.40 1005.04 1005.72 1006.43 1007.14 1007.87 1008.58 1009.28 1009.95 1010.59
1002.53 1001.99 1001.56 1001.25 1001.04 1000.92 1000.88 1000.89 1000.92 1000.97 1001.00 1001.03 1001.02 1000.99 1000.93 1000.86 1000.77 1000.69 1000.61 1000.55 1000.53 1000.53 1000.58 1000.68 1000.82 1001.02 1001.27 1001.58 1001.94 1002.35 1002.82 1003.33 1003.89 1004.49 1005.12 1005.77 1006.45 1007.13 1007.82 1008.50 1009.17 1009.82 1010.43
1002.69 1002.12 1001.65 1001.30 1001.05 1000.90 1000.83 1000.82 1000.85 1000.90 1000.95 1000.98 1000.99 1000.97 1000.93 1000.85 1000.76 1000.66 1000.57 1000.49 1000.44 1000.43 1000.46 1000.56 1000.71 1000.92 1001.20 1001.53 1001.93 1002.38 1002.87 1003.40 1003.97 1004.57 1005.19 1005.82 1006.47 1007.12 1007.76 1008.40 1009.02 1009.63 1010.19
1003.03 1002.44 1001.94 1001.55 1001.26 1001.07 1000.95 1000.90 1000.90 1000.93 1000.96 1000.99 1001.00 1000.98 1000.93 1000.86 1000.77 1000.66 1000.56 1000.47 1000.40 1000.38 1000.41 1000.50 1000.65 1000.88 1001.17 1001.53 1001.94 1002.41 1002.92 1003.47 1004.04 1004.63 1005.23 1005.84 1006.46 1007.06 1007.66 1008.25 1008.82 1009.36 1009.86
Thickness
5606 5606 5605 5604 5602 5599 5596 5596 5596 5597 5597 5598 5601 5604 5607 5612 5617 5623 5627 5632 5639 5645 5650 5654 5657 5660 5663 5665 5668 5671 5672 5671 5671 5673 5675 5679 5682 5683 5683 5682 5681 5680 5680
5595 5592 5590 5589 5588 5586 5585 5585 5584 5583 5583 5583 5584 5587 5590 5595 5600 5607 5614 5619 5624 5633 5639 5644 5648 5651 5654 5658 5661 5664 5667 5668 5668 5667 5668 5671 5675 5676 5676 5674 5672 5670 5669
5584 5580 5576 5573 5570 5570 5570 5570 5570 5569 5570 5569 5569 5571 5574 5578 5583 5590 5598 5605 5612 5619 5627 5632 5637 5640 5645 5650 5654 5658 5661 5662 5663 5662 5662 5665 5668 5669 5668 5666 5662 5659 5658
5568 5562 5557 5555 5553 5553 5553 5552 5552 5553 5554 5555 5556 5558 5559 5562 5566 5572 5579 5588 5596 5604 5613 5620 5623 5628 5634 5641 5645 5651 5654 5656 5657 5657 5657 5659 5662 5663 5661 5658 5653 5649 5647
5551 5544 5539 5535 5532 5531 5532 5533 5535 5536 5539 5541 5543 5545 5547 5548 5552 5557 5563 5571 5579 5588 5597 5605 5610 5616 5624 5631 5637 5643 5647 5649 5651 5653 5654 5655 5657 5657 5656 5652 5647 5640 5635
5535 5528 5522 5516 5513 5512 5512 5514 5517 5520 5523 5527 5531 5535 5537 5541 5544 5547 5550 5557 5565 5572 5581 5589 5597 5605 5614 5621 5628 5636 5642 5645 5648 5650 5652 5654 5655 5655 5652 5647 5642 5637 5630
5521 5513 5506 5500 5496 5494 5493 5495 5498 5503 5508 5514 5520 5525 5529 5533 5536 5538 5542 5545 5551 5559 5567 5574 5584 5594 5603 5611 5620 5629 5636 5642 5647 5650 5652 5654 5654 5654 5649 5642 5639 5635 5630
5507 5499 5491 5483 5478 5476 5474 5476 5480 5486 5493 5501 5509 5516 5521 5526 5528 5531 5534 5538 5542 5548 5555 5562 5571 5580 5590 5600 5610 5620 5629 5636 5641 5645 5650 5653 5654 5653 5650 5644 5636 5628 5621
5493 5483 5473 5465 5460 5457 5457 5459 5464 5470 5478 5487 5497 5505 5511 5518 5522 5524 5527 5530 5534 5540 5546 5552 5559 5569 5580 5590 5601 5611 5620 5627 5633 5639 5644 5648 5649 5648 5645 5637 5630 5625 5616
5482 5470 5459 5451 5446 5444 5444 5446 5451 5457 5466 5475 5484 5493 5500 5507 5513 5517 5520 5522 5527 5533 5539 5545 5551 5558 5567 5578 5591 5603 5612 5620 5626 5631 5636 5639 5641 5641 5640 5639 5634 5626 5618
5475 5464 5454 5446 5440 5438 5438 5440 5444 5450 5457 5465 5474 5482 5489 5496 5503 5509 5512 5515 5520 5526 5532 5537 5543 5548 5557 5569 5581 5595 5607 5614 5619 5625 5629 5631 5632 5632 5631 5631 5630 5627 5621
5473 5463 5454 5446 5440 5439 5437 5439 5441 5445 5450 5457 5463 5472 5480 5487 5495 5501 5506 5510 5515 5520 5527 5533 5537 5541 5548 5559 5572 5586 5596 5605 5613 5618 5622 5624 5625 5625 5624 5621 5620 5618 5617
5475 5466 5458 5450 5443 5440 5438 5440 5442 5444 5447 5453 5458 5466 5474 5480 5488 5495 5500 5506 5511 5516 5523 5527 5531 5535 5541 5552 5564 5577 5588 5599 5607 5612 5616 5618 5618 5618 5616 5613 5611 5609 5608
5478 5469 5462 5455 5449 5445 5443 5443 5443 5445 5448 5452 5456 5462 5468 5475 5482 5490 5497 5503 5508 5513 5518 5521 5524 5528 5535 5546 5558 5570 5584 5595 5603 5607 5609 5609 5609 5609 5609 5608 5606 5604 5599
5482 5474 5466 5459 5454 5450 5448 5447 5448 5449 5450 5453 5457 5461 5466 5473 5481 5487 5495 5502 5507 5512 5515 5517 5521 5525 5531 5543 5555 5567 5579 5588 5594 5598 5600 5601 5602 5602 5601 5600 5600 5599 5597
5487 5479 5471 5464 5459 5456 5454 5454 5454 5454 5455 5456 5458 5462 5468 5473 5480 5486 5492 5498 5503 5508 5512 5517 5520 5523 5529 5540 5552 5563 5574 5583 5588 5592 5594 5596 5597 5597 5595 5594 5595 5595 5595
5491 5485 5477 5470 5465 5462 5460 5459 5459 5461 5461 5462 5463 5466 5469 5475 5481 5487 5492 5496 5500 5504 5511 5515 5517 5520 5527 5537 5548 5559 5569 5577 5582 5587 5589 5590 5592 5591 5590 5590 5590 5591 5591
5497 5492 5485 5477 5472 5467 5465 5464 5464 5465 5467 5468 5467 5468 5473 5477 5482 5487 5491 5495 5499 5503 5510 5512 5515 5518 5524 5534 5545 5554 5564 5570 5576 5582 5584 5585 5587 5587 5587 5587 5587 5588 5587
5505 5499 5494 5487 5481 5476 5473 5472 5472 5472 5472 5472 5472 5472 5473 5477 5481 5485 5490 5497 5502 5505 5508 5511 5514 5518 5524 5533 5543 5552 5561 5568 5573 5577 5580 5582 5584 5585 5584 5583 5582 5579 5582
5514 5509 5504 5497 5491 5486 5483 5481 5480 5479 5479 5479 5478 5477 5478 5481 5484 5487 5491 5496 5500 5504 5508 5512 5516 5519 5525 5533 5542 5551 5559 5566 5571 5575 5577 5579 5580 5581 5581 5579 5578 5578 5579
5524 5517 5512 5505 5499 5494 5491 5488 5486 5485 5485 5484 5482 5481 5481 5485 5487 5489 5493 5497 5501 5504 5509 5513 5518 5522 5527 5534 5542 5551 5559 5565 5570 5573 5574 5576 5577 5578 5578 5577 5575 5575 5574
5533 5526 5519 5512 5507 5502 5498 5495 5492 5490 5489 5487 5485 5483 5483 5486 5489 5491 5494 5498 5503 5506 5510 5515 5521 5525 5531 5537 5544 5553 5560 5565 5569 5572 5573 5574 5575 5575 5574 5573 5572 5571 5570
5540 5534 5528 5521 5515 5509 5505 5502 5499 5496 5493 5491 5489 5488 5489 5491 5492 5494 5497 5500 5504 5508 5512 5517 5523 5528 5533 5540 5548 5555 5562 5567 5570 5573 5574 5574 5574 5573 5572 5570 5569 5568 5567
5543 5540 5535 5529 5523 5517 5512 5508 5504 5501 5498 5495 5493 5493 5494 5495 5497 5499 5501 5504 5508 5512 5517 5523 5528 5534 5540 5547 5553 5558 5564 5568 5571 5573 5575 5574 5572 5570 5569 5568 5568 5568 5567
5543 5543 5540 5536 5530 5525 5520 5515 5511 5507 5503 5501 5499 5499 5499 5500 5501 5503 5506 5510 5514 5519 5524 5531 5537 5542 5547 5552 5557 5561 5564 5567 5571 5572 5572 5572 5570 5568 5568 5568 5567 5566 5566
5542 5543 5543 5540 5536 5531 5526 5522 5518 5514 5511 5509 5507 5506 5506 5507 5507 5509 5513 5517 5522 5527 5533 5538 5543 5548 5552 5556 5560 5562 5564 5567 5569 5571 5571 5570 5568 5568 5567 5567 5566 5566 5565